Location: Strawberry
(45.6646°N, 111.9596°W)
Time: 01:49:19
(UTC+00:00)

Vanguard 1 Rocket - Pass Details

Date: 27 September 2022
Orbit: 650 x 4225 km, 34.3° (Epoch: 05 December)

Event Time Altitude Azimuth Distance (km) Brightness Sun altitude
Rises 02:32:54 0° 209° (SSW) 7,957 12.4 -14.0°
Reaches altitude 10° 02:40:35 10° 197° (SSW) 6,398 11.7 -15.3°
Maximum altitude 02:53:14 23° 155° (SSE) 4,174 10.4 -17.4°
Enters shadow 02:57:40 19° 130° (SE) 3,918 10.1 -18.2°
